Tracking 26442 objects as of 6-Dec-2022
HD Live streaming from Space Station
objects crossing your sky now

OBJECT D

Track OBJECT D now!
10-day predictions


NORAD ID: 43665
Int'l Code: 2018-083D
Perigee: 496.4 km
Apogee: 515.7 km
Inclination: 97.4 °
Period: 94.6 minutes
Semi major axis: 6877 km
RCS: Unknown
Launch date: October 29, 2018
Source: People's Republic of China (PRC)
Launch site: Jiuquan Satellite Launch Center, China (JSC)
aabbcc
Your satellite tracking list
Your tracking list is empty




NASA's NSSDC Master Catalog

Two Line Element Set (TLE):
1 43665U 18083D   22340.48030000  .00005943  00000-0  26033-3 0  9998
2 43665  97.4010   1.9426 0013991  91.0224  46.6624 15.22303776227500
Source of the keplerian elements: AFSPC